| time (UTC) | temp F | wind direction | speed MPH | gust MPH | rain 1hr in | rain 24hr in | rain mn in | humidity % | barometer mb |
| 20260904232055 | 53 | 0 | 0.0 | 0.0 | 0.00 | 0.59 | 0.39 | 74 | 1010.7 |
| 20260904231555 | 54 | 0 | 0.0 | 0.0 | 0.00 | 0.59 | 0.39 | 73 | 1010.4 |
| 20260904231055 | 54 | 0 | 0.0 | 0.0 | 0.00 | 0.59 | 0.39 | 73 | 1011.6 |
| 20260904230555 | 54 | 0 | 0.0 | 0.0 | 0.00 | 0.59 | 0.39 | 73 | 1010.8 |
| 20260904230055 | 54 | 0 | 0.0 | 0.0 | 0.00 | 0.59 | 0.39 | 73 | 1010.7 |
| 20260904225555 | 54 | 0 | 0.0 | 0.0 | 0.00 | 0.59 | 0.39 | 74 | 1010.6 |
| 20260904225055 | 54 | 0 | 0.0 | 0.0 | 0.00 | 0.59 | 0.39 | 72 | 1010.3 |
| 20260904224555 | 54 | 0 | 0.0 | 2.0 | 0.00 | 0.59 | 0.39 | 73 | 1010.8 |
| 20260904224055 | 54 | 0 | 0.0 | 2.0 | 0.00 | 0.62 | 0.39 | 74 | 1011.1 |
| 20260904223555 | 54 | 100 | 0.0 | 2.0 | 0.00 | 0.62 | 0.39 | 74 | 1010.5 |
| 20260904223055 | 54 | 0 | 0.0 | 0.0 | 0.00 | 0.62 | 0.39 | 74 | 1010.6 |
| 20260904222555 | 54 | 336 | 0.0 | 0.0 | 0.00 | 0.62 | 0.39 | 74 | 1010.4 |
| 20260904222055 | 54 | 57 | 0.0 | 2.0 | 0.00 | 0.62 | 0.39 | 73 | 1010.5 |
| 20260904221555 | 54 | 74 | 0.0 | 2.0 | 0.00 | 0.62 | 0.39 | 74 | 1010.1 |
| 20260904221055 | 54 | 107 | 0.0 | 2.0 | 0.00 | 0.62 | 0.39 | 74 | 1011.6 |
| 20260904220555 | 55 | 0 | 0.0 | 6.0 | 0.00 | 0.62 | 0.39 | 75 | 1010.3 |
| 20260904220055 | 55 | 0 | 0.0 | 6.0 | 0.00 | 0.62 | 0.39 | 76 | 1010.5 |
| 20260904215555 | 54 | 165 | 0.0 | 6.0 | 0.00 | 0.62 | 0.39 | 76 | 1010.8 |
| 20260904215055 | 54 | 29 | 1.0 | 1.0 | 0.00 | 0.62 | 0.39 | 76 | 1010.5 |
| 20260904214555 | 54 | 357 | 0.0 | 2.0 | 0.00 | 0.62 | 0.39 | 76 | 1011.2 |
| 20260904214055 | 54 | 70 | 0.0 | 2.0 | 0.00 | 0.62 | 0.39 | 77 | 1009.9 |
| 20260904213555 | 53 | 92 | 0.0 | 2.0 | 0.00 | 0.62 | 0.39 | 77 | 1010.7 |
| 20260904213055 | 53 | 74 | 0.0 | 3.0 | 0.00 | 0.62 | 0.39 | 78 | 1010.8 |
| 20260904212555 | 53 | 124 | 0.0 | 3.0 | 0.00 | 0.62 | 0.39 | 78 | 1010.2 |
| 20260904212055 | 53 | 107 | 0.0 | 3.0 | 0.00 | 0.62 | 0.39 | 78 | 1010.2 |
| 20260904211555 | 53 | 49 | 0.0 | 2.0 | 0.00 | 0.62 | 0.39 | 79 | 1010.2 |
| 20260904211055 | 52 | 49 | 0.0 | 2.0 | 0.00 | 0.62 | 0.39 | 79 | 1010.6 |
| 20260904210555 | 52 | 98 | 0.0 | 2.0 | 0.00 | 0.62 | 0.39 | 80 | 1009.6 |
| 20260904210055 | 52 | 357 | 0.0 | 2.0 | 0.00 | 0.62 | 0.39 | 80 | 1009.6 |
| 20260904205555 | 52 | 92 | 0.0 | 0.0 | 0.00 | 0.62 | 0.39 | 80 | 1010.5 |
| 20260904205055 | 51 | 0 | 0.0 | 0.0 | 0.00 | 0.62 | 0.39 | 79 | 1010.1 |
| 20260904204555 | 51 | 67 | 0.0 | 4.0 | 0.00 | 0.62 | 0.39 | 80 | 1009.5 |
| 20260904204055 | 51 | 92 | 1.0 | 4.0 | 0.00 | 0.66 | 0.39 | 81 | 1010.2 |
| 20260904203555 | 51 | 107 | 0.0 | 4.0 | 0.00 | 0.66 | 0.39 | 81 | 1010.3 |
| 20260904203055 | 52 | 81 | 1.0 | 1.0 | 0.00 | 0.66 | 0.39 | 80 | 1009.5 |
| 20260904202555 | 52 | 81 | 0.0 | 3.0 | 0.00 | 0.66 | 0.39 | 80 | 1009.4 |
| 20260904202055 | 52 | 117 | 0.0 | 3.0 | 0.00 | 0.66 | 0.39 | 81 | 1010.3 |
| 20260904201554 | 52 | 110 | 1.0 | 3.0 | 0.00 | 0.66 | 0.39 | 81 | 1009.5 |
| 20260904201055 | 52 | 134 | 0.0 | 2.0 | 0.00 | 0.66 | 0.39 | 82 | 1010.5 |
| 20260904200555 | 51 | 88 | 0.0 | 1.0 | 0.00 | 0.66 | 0.39 | 82 | 1010.5 |
| 20260904200055 | 51 | 88 | 0.0 | 1.0 | 0.00 | 0.66 | 0.39 | 82 | 1009.9 |
| 20260904195554 | 50 | 0 | 0.0 | 0.0 | 0.00 | 0.66 | 0.39 | 83 | 1010.5 |
| 20260904195054 | 50 | 0 | 0.0 | 0.0 | 0.00 | 0.66 | 0.39 | 82 | 1010.5 |
| 20260904194555 | 50 | 88 | 0.0 | 0.0 | 0.00 | 0.66 | 0.39 | 82 | 1010.8 |
| 20260904194054 | 50 | 88 | 0.0 | 0.0 | 0.00 | 0.67 | 0.39 | 82 | 1009.7 |
| 20260904193554 | 50 | 88 | 0.0 | 0.0 | 0.00 | 0.67 | 0.39 | 82 | 1009.9 |
| 20260904193054 | 49 | 92 | 0.0 | 4.0 | 0.00 | 0.67 | 0.39 | 82 | 1009.6 |
| 20260904192555 | 49 | 93 | 0.0 | 4.0 | 0.00 | 0.67 | 0.39 | 82 | 1009.5 |
| 20260904192055 | 49 | 124 | 0.0 | 4.0 | 0.00 | 0.67 | 0.39 | 82 | 1009.3 |
| 20260904191554 | 49 | 186 | 1.0 | 3.0 | 0.00 | 0.67 | 0.39 | 82 | 1009.7 |
| 20260904191054 | 48 | 109 | 0.0 | 3.0 | 0.00 | 0.67 | 0.39 | 81 | 1009.4 |
| 20260904190554 | 48 | 0 | 0.0 | 2.0 | 0.00 | 0.67 | 0.39 | 81 | 1009.9 |
| 20260904190054 | 48 | 106 | 0.0 | 2.0 | 0.00 | 0.67 | 0.39 | 81 | 1010.3 |
| 20260904185555 | 48 | 114 | 0.0 | 2.0 | 0.00 | 0.67 | 0.39 | 81 | 1009.6 |
| 20260904185054 | 48 | 11 | 0.0 | 1.0 | 0.00 | 0.67 | 0.39 | 81 | 1009.6 |
| 20260904184554 | 49 | 40 | 0.0 | 4.0 | 0.00 | 0.67 | 0.39 | 81 | 1009.7 |
| 20260904184055 | 49 | 0 | 0.0 | 4.0 | 0.00 | 0.70 | 0.39 | 80 | 1009.9 |
| 20260904183554 | 49 | 88 | 0.0 | 4.0 | 0.00 | 0.70 | 0.39 | 80 | 1009.3 |
| 20260904183054 | 49 | 120 | 1.0 | 3.0 | 0.00 | 0.70 | 0.39 | 80 | 1009.6 |
| 20260904182554 | 49 | 126 | 0.0 | 3.0 | 0.00 | 0.70 | 0.39 | 80 | 1009.2 |
| 20260904182054 | 49 | 0 | 0.0 | 3.0 | 0.00 | 0.70 | 0.39 | 79 | 1009.5 |
| 20260904181554 | 49 | 95 | 0.0 | 3.0 | 0.00 | 0.70 | 0.39 | 81 | 1010.3 |
| 20260904181054 | 49 | 0 | 0.0 | 0.0 | 0.00 | 0.70 | 0.39 | 81 | 1009.3 |
| 20260904180554 | 49 | 0 | 0.0 | 3.0 | 0.00 | 0.70 | 0.39 | 80 | 1009.2 |
| 20260904180054 | 48 | 88 | 0.0 | 3.0 | 0.00 | 0.70 | 0.39 | 81 | 1010.1 |
| 20260904175554 | 48 | 110 | 0.0 | 3.0 | 0.00 | 0.70 | 0.39 | 81 | 1008.6 |
| 20260904175054 | 48 | 107 | 1.0 | 4.0 | 0.00 | 0.70 | 0.39 | 81 | 1008.8 |
| 20260904174554 | 48 | 65 | 0.0 | 4.0 | 0.00 | 0.70 | 0.39 | 81 | 1008.8 |
| 20260904174054 | 48 | 102 | 0.0 | 4.0 | 0.00 | 1.02 | 0.39 | 81 | 1009.4 |
| 20260904173554 | 48 | 173 | 0.0 | 2.0 | 0.00 | 1.02 | 0.39 | 80 | 1009.1 |
| 20260904173054 | 48 | 107 | 0.0 | 2.0 | 0.00 | 1.02 | 0.39 | 81 | 1009.4 |
| 20260904172554 | 48 | 39 | 0.0 | 0.0 | 0.00 | 1.02 | 0.39 | 80 | 1008.5 |
| 20260904172054 | 48 | 0 | 0.0 | 4.0 | 0.00 | 1.02 | 0.39 | 81 | 1009.9 |
| 20260904171554 | 48 | 110 | 0.0 | 4.0 | 0.00 | 1.02 | 0.39 | 80 | 1009.7 |
| 20260904171054 | 48 | 120 | 0.0 | 4.0 | 0.00 | 1.02 | 0.39 | 81 | 1009.8 |
| 20260904170554 | 47 | 92 | 0.0 | 2.0 | 0.00 | 1.02 | 0.39 | 81 | 1008.9 |
| 20260904170054 | 47 | 137 | 0.0 | 4.0 | 0.00 | 1.02 | 0.39 | 81 | 1009.3 |
| 20260904165554 | 47 | 0 | 0.0 | 4.0 | 0.00 | 1.02 | 0.39 | 81 | 1008.3 |
| 20260904165054 | 47 | 103 | 0.0 | 4.0 | 0.00 | 1.02 | 0.39 | 81 | 1008.5 |
| 20260904164554 | 47 | 120 | 0.0 | 2.0 | 0.00 | 1.02 | 0.39 | 81 | 1008.5 |
| 20260904164054 | 47 | 120 | 0.0 | 2.0 | 0.00 | 1.07 | 0.39 | 81 | 1008.6 |
| 20260904163554 | 47 | 151 | 0.0 | 2.0 | 0.00 | 1.07 | 0.39 | 81 | 1008.2 |
| 20260904163054 | 47 | 0 | 0.0 | 2.0 | 0.00 | 1.07 | 0.39 | 81 | 1008.8 |
| 20260904162554 | 47 | 64 | 0.0 | 2.0 | 0.00 | 1.07 | 0.39 | 81 | 1008.2 |
| 20260904162054 | 47 | 0 | 0.0 | 0.0 | 0.00 | 1.07 | 0.39 | 80 | 1009.1 |
| 20260904161555 | 47 | 0 | 0.0 | 0.0 | 0.00 | 1.07 | 0.39 | 81 | 1008.9 |
| 20260904161054 | 48 | 0 | 0.0 | 0.0 | 0.00 | 1.07 | 0.39 | 81 | 1009.1 |
| 20260904160554 | 48 | 0 | 0.0 | 0.0 | 0.00 | 1.07 | 0.39 | 81 | 1008.2 |
| 20260904160054 | 49 | 57 | 0.0 | 5.0 | 0.00 | 1.07 | 0.39 | 81 | 1008.9 |
| 20260904155554 | 49 | 96 | 0.0 | 5.0 | 0.00 | 1.07 | 0.39 | 81 | 1008.4 |
| 20260904155054 | 48 | 106 | 0.0 | 5.0 | 0.00 | 1.07 | 0.39 | 81 | 1008.0 |
| 20260904154554 | 48 | 0 | 0.0 | 5.0 | 0.00 | 1.07 | 0.39 | 82 | 1009.1 |
| 20260904154054 | 48 | 130 | 0.0 | 5.0 | 0.00 | 1.17 | 0.39 | 82 | 1008.3 |
| 20260904153554 | 47 | 124 | 1.0 | 3.0 | 0.00 | 1.17 | 0.39 | 82 | 1007.8 |
| 20260904153054 | 46 | 63 | 0.0 | 2.0 | 0.00 | 1.17 | 0.39 | 83 | 1008.5 |
| 20260904152554 | 46 | 63 | 0.0 | 1.0 | 0.00 | 1.17 | 0.39 | 82 | 1007.8 |
| 20260904152054 | 46 | 21 | 0.0 | 3.0 | 0.00 | 1.17 | 0.39 | 81 | 1007.8 |
| 20260904151554 | 46 | 0 | 0.0 | 3.0 | 0.00 | 1.17 | 0.39 | 81 | 1008.0 |
| 20260904151054 | 46 | 110 | 0.0 | 3.0 | 0.00 | 1.17 | 0.39 | 81 | 1008.7 |
| 20260904150554 | 46 | 98 | 0.0 | 5.0 | 0.00 | 1.17 | 0.39 | 81 | 1007.4 |
| 20260904150054 | 46 | 127 | 0.0 | 5.0 | 0.00 | 1.17 | 0.39 | 81 | 1008.2 |
| 20260904145554 | 46 | 165 | 0.0 | 5.0 | 0.00 | 1.17 | 0.39 | 81 | 1007.7 |
| 20260904145054 | 46 | 81 | 0.0 | 2.0 | 0.00 | 1.17 | 0.39 | 81 | 1007.3 |
| 20260904144554 | 46 | 82 | 0.0 | 1.0 | 0.00 | 1.17 | 0.39 | 81 | 1008.3 |
| 20260904144054 | 46 | 166 | 0.0 | 1.0 | 0.00 | 1.30 | 0.39 | 81 | 1007.2 |
| 20260904143554 | 46 | 84 | 0.0 | 2.0 | 0.00 | 1.30 | 0.39 | 81 | 1007.2 |
| 20260904143054 | 46 | 86 | 0.0 | 2.0 | 0.00 | 1.30 | 0.39 | 81 | 1007.4 |
| 20260904142554 | 46 | 91 | 0.0 | 2.0 | 0.00 | 1.30 | 0.39 | 81 | 1006.9 |
| 20260904142054 | 46 | 112 | 0.0 | 3.0 | 0.00 | 1.30 | 0.39 | 81 | 1006.9 |
| 20260904141554 | 46 | 102 | 0.0 | 3.0 | 0.00 | 1.30 | 0.39 | 81 | 1007.5 |
| 20260904141054 | 46 | 126 | 0.0 | 3.0 | 0.00 | 1.30 | 0.39 | 81 | 1007.3 |
| 20260904140554 | 46 | 0 | 0.0 | 0.0 | 0.00 | 1.30 | 0.39 | 81 | 1006.7 |
| 20260904140054 | 46 | 131 | 0.0 | 4.0 | 0.00 | 1.30 | 0.39 | 81 | 1006.7 |
| 20260904135554 | 46 | 54 | 0.0 | 4.0 | 0.00 | 1.30 | 0.39 | 81 | 1006.6 |
| 20260904135054 | 46 | 28 | 0.0 | 4.0 | 0.00 | 1.30 | 0.39 | 81 | 1006.6 |
| 20260904134554 | 46 | 148 | 0.0 | 1.0 | 0.00 | 1.30 | 0.39 | 81 | 1006.6 |
| 20260904134054 | 46 | 148 | 0.0 | 1.0 | 0.00 | 1.36 | 0.39 | 80 | 1006.5 |
| 20260904133554 | 46 | 148 | 0.0 | 1.0 | 0.00 | 1.36 | 0.39 | 81 | 1007.5 |
| 20260904133054 | 46 | 0 | 0.0 | 3.0 | 0.00 | 1.36 | 0.39 | 80 | 1006.6 |
| 20260904132554 | 45 | 70 | 0.0 | 3.0 | 0.00 | 1.36 | 0.39 | 81 | 1007.3 |
| 20260904132054 | 46 | 131 | 0.0 | 3.0 | 0.00 | 1.36 | 0.39 | 81 | 1006.4 |
| 20260904131554 | 46 | 110 | 0.0 | 2.0 | 0.00 | 1.36 | 0.39 | 81 | 1006.6 |
| 20260904131054 | 46 | 0 | 0.0 | 3.0 | 0.00 | 1.36 | 0.39 | 81 | 1007.6 |
| 20260904130554 | 46 | 106 | 0.0 | 3.0 | 0.00 | 1.36 | 0.39 | 81 | 1006.3 |
| 20260904130054 | 45 | 106 | 0.0 | 3.0 | 0.00 | 1.36 | 0.39 | 81 | 1006.2 |
| 20260904125554 | 46 | 109 | 0.0 | 2.0 | 0.00 | 1.36 | 0.39 | 81 | 1006.2 |
| 20260904125054 | 46 | 130 | 0.0 | 2.0 | 0.00 | 1.36 | 0.39 | 81 | 1006.2 |
| 20260904124554 | 46 | 110 | 0.0 | 3.0 | 0.00 | 1.36 | 0.39 | 81 | 1006.3 |
| 20260904124054 | 46 | 100 | 0.0 | 3.0 | 0.00 | 1.56 | 0.39 | 81 | 1006.4 |
| 20260904123554 | 46 | 35 | 0.0 | 3.0 | 0.00 | 1.56 | 0.39 | 81 | 1006.0 |
| 20260904123054 | 46 | 26 | 0.0 | 1.0 | 0.00 | 1.56 | 0.39 | 81 | 1006.0 |
| 20260904122554 | 46 | 75 | 0.0 | 1.0 | 0.00 | 1.56 | 0.39 | 81 | 1006.0 |
| 20260904122054 | 46 | 58 | 0.0 | 0.0 | 0.00 | 1.56 | 0.39 | 81 | 1006.0 |
| 20260904121554 | 46 | 0 | 0.0 | 0.0 | 0.00 | 1.56 | 0.39 | 81 | 1006.4 |
| 20260904121054 | 46 | 0 | 0.0 | 2.0 | 0.00 | 1.56 | 0.39 | 81 | 1007.6 |
| 20260904120554 | 46 | 0 | 0.0 | 2.0 | 0.00 | 1.56 | 0.39 | 81 | 1006.0 |
| 20260904120054 | 46 | 58 | 0.0 | 2.0 | 0.00 | 1.56 | 0.39 | 81 | 1006.4 |
| 20260904115554 | 46 | 0 | 0.0 | 0.0 | 0.00 | 1.56 | 0.39 | 82 | 1005.9 |
| 20260904115054 | 46 | 82 | 0.0 | 2.0 | 0.01 | 1.56 | 0.39 | 81 | 1005.9 |
| 20260904114554 | 46 | 100 | 0.0 | 2.0 | 0.01 | 1.56 | 0.39 | 81 | 1005.8 |
| 20260904114054 | 46 | 107 | 0.0 | 2.0 | 0.01 | 1.71 | 0.39 | 81 | 1006.2 |
| 20260904113554 | 46 | 121 | 0.0 | 6.0 | 0.01 | 1.71 | 0.39 | 81 | 1005.7 |
| 20260904113054 | 46 | 67 | 0.0 | 6.0 | 0.02 | 1.71 | 0.39 | 81 | 1006.0 |
| 20260904112554 | 46 | 119 | 0.0 | 6.0 | 0.02 | 1.71 | 0.39 | 80 | 1005.4 |
| 20260904112054 | 46 | 116 | 1.0 | 5.0 | 0.02 | 1.71 | 0.39 | 80 | 1005.4 |
| 20260904111554 | 45 | 140 | 0.0 | 5.0 | 0.02 | 1.71 | 0.39 | 80 | 1005.3 |
| 20260904111053 | 46 | 103 | 0.0 | 5.0 | 0.02 | 1.71 | 0.39 | 80 | 1006.3 |
| 20260904110554 | 45 | 144 | 0.0 | 5.0 | 0.02 | 1.71 | 0.39 | 80 | 1005.3 |
| 20260904110054 | 45 | 127 | 0.0 | 3.0 | 0.02 | 1.71 | 0.39 | 80 | 1005.6 |
| 20260904105553 | 46 | 100 | 1.0 | 5.0 | 0.02 | 1.71 | 0.39 | 80 | 1005.3 |
| 20260904105053 | 46 | 152 | 0.0 | 5.0 | 0.01 | 1.71 | 0.39 | 80 | 1005.6 |
| 20260904104553 | 46 | 107 | 1.0 | 5.0 | 0.01 | 1.71 | 0.38 | 80 | 1005.1 |
| 20260904104053 | 46 | 159 | 0.0 | 4.0 | 0.01 | 1.92 | 0.38 | 80 | 1005.6 |
| 20260904103553 | 46 | 109 | 0.0 | 4.0 | 0.01 | 1.92 | 0.38 | 80 | 1005.1 |
| 20260904103053 | 46 | 29 | 0.0 | 7.0 | 0.01 | 1.92 | 0.38 | 80 | 1005.8 |
| 20260904102553 | 45 | 2 | 2.0 | 7.0 | 0.01 | 1.92 | 0.37 | 80 | 1005.1 |
| 20260904102053 | 45 | 117 | 1.0 | 7.0 | 0.01 | 1.92 | 0.37 | 80 | 1005.1 |
| 20260904101554 | 45 | 119 | 0.0 | 5.0 | 0.01 | 1.92 | 0.37 | 80 | 1005.4 |
| 20260904101053 | 45 | 100 | 0.0 | 5.0 | 0.01 | 1.92 | 0.37 | 80 | 1005.8 |
| 20260904100553 | 45 | 75 | 1.0 | 5.0 | 0.01 | 1.92 | 0.37 | 81 | 1005.0 |
| 20260904100053 | 45 | 137 | 1.0 | 5.0 | 0.01 | 1.92 | 0.37 | 81 | 1005.6 |
| 20260904095553 | 46 | 96 | 0.0 | 4.0 | 0.01 | 1.92 | 0.37 | 81 | 1005.0 |
| 20260904094553 | 46 | 100 | 0.0 | 6.0 | 0.01 | 1.92 | 0.37 | 81 | 1005.6 |
| 20260904094053 | 45 | 98 | 1.0 | 6.0 | 0.01 | 2.02 | 0.37 | 81 | 1004.9 |
| 20260904093553 | 45 | 106 | 1.0 | 4.0 | 0.01 | 2.02 | 0.37 | 81 | 1005.3 |
| 20260904093053 | 45 | 88 | 0.0 | 4.0 | 0.01 | 2.02 | 0.37 | 80 | 1005.6 |
| 20260904092553 | 45 | 99 | 1.0 | 8.0 | 0.01 | 2.02 | 0.37 | 80 | 1004.9 |
| 20260904092053 | 45 | 91 | 1.0 | 8.0 | 0.01 | 2.02 | 0.36 | 81 | 1004.8 |
| 20260904091553 | 45 | 117 | 1.0 | 8.0 | 0.01 | 2.02 | 0.36 | 81 | 1004.9 |
| 20260904091053 | 45 | 155 | 1.0 | 5.0 | 0.01 | 2.02 | 0.36 | 80 | 1005.4 |
| 20260904090553 | 45 | 124 | 1.0 | 4.0 | 0.01 | 2.02 | 0.36 | 80 | 1004.8 |
| 20260904090053 | 46 | 137 | 0.0 | 5.0 | 0.01 | 2.02 | 0.36 | 80 | 1005.9 |
| 20260904085553 | 46 | 134 | 0.0 | 5.0 | 0.01 | 2.02 | 0.36 | 80 | 1004.8 |
| 20260904085053 | 46 | 257 | 1.0 | 5.0 | 0.01 | 2.02 | 0.36 | 81 | 1004.9 |
| 20260904084553 | 46 | 102 | 0.0 | 4.0 | 0.01 | 2.02 | 0.36 | 81 | 1004.9 |
| 20260904084053 | 46 | 116 | 1.0 | 6.0 | 0.01 | 2.01 | 0.36 | 81 | 1004.9 |
| 20260904083553 | 46 | 109 | 1.0 | 6.0 | 0.01 | 2.01 | 0.36 | 81 | 1004.9 |
| 20260904083053 | 46 | 134 | 2.0 | 6.0 | 0.00 | 2.01 | 0.35 | 80 | 1005.6 |
| 20260904082553 | 46 | 100 | 1.0 | 4.0 | 0.00 | 2.01 | 0.35 | 81 | 1005.0 |
| 20260904082053 | 46 | 110 | 1.0 | 6.0 | 0.00 | 2.01 | 0.35 | 81 | 1005.0 |
| 20260904081553 | 46 | 154 | 0.0 | 6.0 | 0.00 | 2.01 | 0.35 | 80 | 1005.1 |
| 20260904081053 | 46 | 102 | 0.0 | 6.0 | 0.00 | 2.01 | 0.35 | 80 | 1005.8 |
| 20260904080553 | 46 | 133 | 2.0 | 6.0 | 0.00 | 2.01 | 0.35 | 80 | 1004.9 |
| 20260904080053 | 46 | 86 | 0.0 | 4.0 | 0.00 | 2.01 | 0.35 | 79 | 1006.2 |
| 20260904075553 | 46 | 114 | 2.0 | 5.0 | 0.00 | 2.01 | 0.35 | 80 | 1005.0 |
| 20260904075053 | 46 | 120 | 1.0 | 5.0 | 0.00 | 2.01 | 0.35 | 80 | 1005.0 |
| 20260904074553 | 46 | 138 | 0.0 | 5.0 | 0.00 | 2.01 | 0.35 | 80 | 1005.1 |
| 20260904074054 | 46 | 106 | 0.0 | 3.0 | 0.00 | 2.05 | 0.35 | 80 | 1005.1 |
| 20260904073553 | 46 | 116 | 0.0 | 3.0 | 0.00 | 2.05 | 0.35 | 80 | 1005.1 |
| 20260904073053 | 46 | 70 | 0.0 | 3.0 | 0.00 | 2.05 | 0.35 | 80 | 1006.0 |
| 20260904072553 | 46 | 91 | 0.0 | 2.0 | 0.00 | 2.05 | 0.35 | 79 | 1005.0 |
| 20260904072053 | 46 | 110 | 0.0 | 5.0 | 0.00 | 2.05 | 0.35 | 80 | 1005.0 |
| 20260904071553 | 46 | 109 | 1.0 | 5.0 | 0.00 | 2.05 | 0.35 | 80 | 1004.9 |
| 20260904071053 | 46 | 82 | 1.0 | 5.0 | 0.00 | 2.05 | 0.35 | 80 | 1005.9 |
| 20260904070553 | 46 | 112 | 0.0 | 4.0 | 0.00 | 2.05 | 0.35 | 80 | 1004.9 |
| 20260904070053 | 46 | 86 | 0.0 | 4.0 | 0.00 | 2.05 | 0.35 | 79 | 1005.5 |
| 20260904065553 | 46 | 128 | 0.0 | 4.0 | 0.00 | 2.05 | 0.35 | 80 | 1004.9 |
| 20260904065053 | 46 | 114 | 0.0 | 3.0 | 0.00 | 2.05 | 0.35 | 80 | 1005.0 |
| 20260904064553 | 46 | 109 | 0.0 | 4.0 | 0.00 | 2.05 | 0.35 | 80 | 1005.7 |
| 20260904064053 | 46 | 117 | 0.0 | 4.0 | 0.00 | 2.06 | 0.35 | 80 | 1005.0 |
| 20260904063553 | 46 | 140 | 0.0 | 4.0 | 0.00 | 2.06 | 0.35 | 80 | 1005.0 |
| 20260904063053 | 46 | 84 | 0.0 | 3.0 | 0.00 | 2.06 | 0.35 | 80 | 1005.4 |
| 20260904062553 | 46 | 119 | 0.0 | 2.0 | 0.00 | 2.06 | 0.35 | 80 | 1005.1 |
| 20260904062053 | 46 | 109 | 0.0 | 3.0 | 0.00 | 2.06 | 0.35 | 80 | 1005.6 |
| 20260904061553 | 46 | 161 | 0.0 | 3.0 | 0.00 | 2.06 | 0.35 | 80 | 1005.4 |
| 20260904061053 | 46 | 99 | 0.0 | 3.0 | 0.00 | 2.06 | 0.35 | 80 | 1006.5 |
| 20260904060553 | 46 | 18 | 0.0 | 3.0 | 0.00 | 2.06 | 0.35 | 81 | 1005.1 |
| 20260904060053 | 46 | 89 | 0.0 | 3.0 | 0.00 | 2.06 | 0.35 | 81 | 1005.8 |
| 20260904055553 | 47 | 105 | 0.0 | 3.0 | 0.00 | 2.06 | 0.35 | 81 | 1005.1 |
| 20260904055053 | 47 | 0 | 0.0 | 6.0 | 0.00 | 2.06 | 0.35 | 80 | 1005.3 |
| 20260904054553 | 47 | 357 | 0.0 | 6.0 | 0.00 | 2.06 | 0.35 | 80 | 1005.5 |
| 20260904054053 | 47 | 86 | 0.0 | 6.0 | 0.00 | 2.06 | 0.35 | 80 | 1005.3 |
| 20260904053553 | 47 | 91 | 0.0 | 4.0 | 0.00 | 2.06 | 0.35 | 80 | 1005.3 |
| 20260904053053 | 47 | 127 | 0.0 | 4.0 | 0.00 | 2.06 | 0.35 | 80 | 1005.5 |
| 20260904052553 | 47 | 120 | 0.0 | 4.0 | 0.00 | 2.06 | 0.35 | 79 | 1005.4 |
| 20260904052053 | 46 | 47 | 0.0 | 4.0 | 0.00 | 2.06 | 0.35 | 80 | 1005.3 |
| 20260904051553 | 47 | 40 | 0.0 | 4.0 | 0.00 | 2.06 | 0.35 | 80 | 1005.5 |
| 20260904051053 | 47 | 85 | 0.0 | 1.0 | 0.00 | 2.06 | 0.35 | 80 | 1005.7 |
| 20260904050553 | 47 | 85 | 0.0 | 1.0 | 0.00 | 2.06 | 0.35 | 80 | 1005.7 |
| 20260904050053 | 47 | 135 | 0.0 | 1.0 | 0.00 | 2.06 | 0.35 | 80 | 1006.2 |
| 20260904045553 | 47 | 109 | 0.0 | 1.0 | 0.00 | 2.06 | 0.35 | 80 | 1005.5 |
| 20260904045053 | 47 | 109 | 0.0 | 2.0 | 0.02 | 2.06 | 0.35 | 79 | 1005.4 |
| 20260904044553 | 47 | 0 | 0.0 | 2.0 | 0.02 | 2.06 | 0.35 | 80 | 1005.9 |
| 20260904044053 | 47 | 109 | 0.0 | 2.0 | 0.02 | 2.04 | 0.35 | 80 | 1005.5 |
| 20260904043553 | 47 | 88 | 0.0 | 0.0 | 0.02 | 2.04 | 0.35 | 80 | 1005.4 |
| 20260904043053 | 47 | 0 | 0.0 | 3.0 | 0.02 | 2.04 | 0.35 | 80 | 1006.0 |
| 20260904042553 | 47 | 0 | 0.0 | 3.0 | 0.02 | 2.04 | 0.35 | 80 | 1005.6 |
| 20260904042053 | 47 | 107 | 0.0 | 3.0 | 0.02 | 2.04 | 0.35 | 79 | 1005.7 |
| 20260904041553 | 47 | 134 | 0.0 | 5.0 | 0.02 | 2.04 | 0.35 | 80 | 1005.4 |
| 20260904041053 | 47 | 127 | 0.0 | 5.0 | 0.02 | 2.04 | 0.35 | 80 | 1005.8 |
| 20260904040553 | 47 | 112 | 0.0 | 5.0 | 0.02 | 2.04 | 0.35 | 80 | 1005.4 |
| 20260904040053 | 47 | 106 | 0.0 | 2.0 | 0.03 | 2.04 | 0.35 | 79 | 1006.0 |
| 20260904035553 | 47 | 331 | 0.0 | 2.0 | 0.03 | 2.04 | 0.35 | 79 | 1005.7 |
| 20260904035053 | 47 | 0 | 0.0 | 0.0 | 0.02 | 2.04 | 0.34 | 79 | 1005.1 |
| 20260904034553 | 47 | 0 | 0.0 | 0.0 | 0.02 | 2.04 | 0.34 | 79 | 1005.8 |
| 20260904034053 | 47 | 331 | 0.0 | 0.0 | 0.04 | 2.02 | 0.33 | 79 | 1005.1 |
| 20260904033553 | 47 | 331 | 0.0 | 0.0 | 0.04 | 2.02 | 0.33 | 79 | 1005.6 |
| 20260904033053 | 47 | 331 | 0.0 | 0.0 | 0.06 | 2.02 | 0.33 | 80 | 1005.4 |
| 20260904032553 | 47 | 0 | 0.0 | 0.0 | 0.06 | 2.02 | 0.33 | 80 | 1004.9 |
| 20260904032053 | 47 | 126 | 0.0 | 0.0 | 0.06 | 2.02 | 0.33 | 80 | 1004.8 |
| 20260904031553 | 47 | 0 | 0.0 | 0.0 | 0.06 | 2.02 | 0.33 | 80 | 1005.3 |
| 20260904031054 | 47 | 0 | 0.0 | 0.0 | 0.06 | 2.02 | 0.33 | 80 | 1004.9 |
| 20260904030553 | 47 | 0 | 0.0 | 0.0 | 0.06 | 2.02 | 0.33 | 80 | 1005.1 |
| 20260904030053 | 47 | 0 | 0.0 | 3.0 | 0.05 | 2.02 | 0.33 | 79 | 1005.6 |
| 20260904025553 | 47 | 126 | 0.0 | 3.0 | 0.05 | 2.02 | 0.32 | 79 | 1005.1 |
| 20260904025053 | 47 | 105 | 0.0 | 3.0 | 0.04 | 2.02 | 0.32 | 79 | 1005.1 |
| 20260904024553 | 47 | 120 | 0.0 | 1.0 | 0.04 | 2.02 | 0.31 | 79 | 1005.3 |
| 20260904024055 | 47 | 0 | 0.0 | 0.0 | 0.04 | 1.99 | 0.31 | 79 | 1004.9 |
| 20260904023553 | 47 | 0 | 0.0 | 0.0 | 0.04 | 1.99 | 0.29 | 79 | 1004.9 |
| 20260904023054 | 47 | 0 | 0.0 | 4.0 | 0.06 | 1.99 | 0.28 | 79 | 1005.3 |
| 20260904022553 | 47 | 0 | 0.0 | 4.0 | 0.06 | 1.99 | 0.27 | 80 | 1004.9 |
| 20260904022055 | 47 | 127 | 0.0 | 4.0 | 0.09 | 1.99 | 0.27 | 80 | 1005.0 |
| 20260904021553 | 47 | 217 | 0.0 | 2.0 | 0.09 | 1.99 | 0.27 | 80 | 1005.0 |
| 20260904021053 | 47 | 194 | 0.0 | 4.0 | 0.12 | 1.99 | 0.27 | 79 | 1005.7 |
| 20260904020553 | 47 | 194 | 0.0 | 4.0 | 0.12 | 1.99 | 0.27 | 79 | 1005.3 |
| 20260904020053 | 47 | 176 | 0.0 | 4.0 | 0.12 | 1.99 | 0.27 | 79 | 1005.8 |
| 20260904015553 | 47 | 0 | 0.0 | 0.0 | 0.12 | 1.99 | 0.27 | 79 | 1005.3 |
| 20260904015052 | 47 | 218 | 0.0 | 2.0 | 0.13 | 1.99 | 0.27 | 79 | 1005.4 |
| 20260904014552 | 47 | 270 | 0.0 | 2.0 | 0.13 | 1.99 | 0.27 | 78 | 1004.9 |
| 20260904014052 | 47 | 278 | 0.0 | 2.0 | 0.14 | 1.86 | 0.27 | 79 | 1005.5 |
| 20260904013552 | 47 | 0 | 0.0 | 0.0 | 0.14 | 1.86 | 0.26 | 79 | 1005.1 |
| 20260904013052 | 47 | 0 | 0.0 | 4.0 | 0.15 | 1.86 | 0.23 | 79 | 1005.7 |
| 20260904012552 | 47 | 0 | 0.0 | 4.0 | 0.15 | 1.86 | 0.21 | 80 | 1005.3 |
| 20260904012052 | 47 | 228 | 0.0 | 4.0 | 0.16 | 1.86 | 0.21 | 79 | 1004.8 |
| 20260904011552 | 47 | 228 | 1.0 | 1.0 | 0.16 | 1.86 | 0.18 | 79 | 1005.8 |
| 20260904011052 | 47 | 0 | 0.0 | 0.0 | 0.14 | 1.86 | 0.17 | 79 | 1005.7 |
| 20260904010552 | 47 | 0 | 0.0 | 0.0 | 0.14 | 1.86 | 0.15 | 78 | 1005.3 |
| 20260904010052 | 47 | 236 | 0.0 | 8.0 | 0.15 | 1.86 | 0.15 | 78 | 1005.6 |
| 20260904005552 | 47 | 145 | 0.0 | 8.0 | 0.15 | 1.86 | 0.15 | 80 | 1005.5 |
| 20260904005052 | 47 | 243 | 1.0 | 8.0 | 0.14 | 1.86 | 0.15 | 79 | 1005.5 |
| 20260904004552 | 47 | 14 | 1.0 | 5.0 | 0.14 | 1.86 | 0.15 | 80 | 1006.0 |
| 20260904004052 | 47 | 79 | 0.0 | 1.0 | 0.12 | 1.72 | 0.14 | 80 | 1004.8 |
| 20260904003552 | 47 | 285 | 0.0 | 1.0 | 0.12 | 1.72 | 0.12 | 78 | 1004.7 |
| 20260904003052 | 47 | 0 | 0.0 | 2.0 | 0.08 | 1.72 | 0.10 | 79 | 1006.4 |
| 20260904002552 | 48 | 0 | 0.0 | 2.0 | 0.08 | 1.72 | 0.07 | 78 | 1004.9 |
| 20260904002052 | 48 | 228 | 0.0 | 2.0 | 0.10 | 1.72 | 0.04 | 78 | 1004.8 |
| 20260904001552 | 48 | 196 | 0.0 | 6.0 | 0.10 | 1.72 | 0.02 | 77 | 1005.3 |
| 20260904001052 | 48 | 0 | 0.0 | 6.0 | 0.12 | 1.72 | 0.01 | 78 | 1005.4 |
| 20260904000552 | 48 | 200 | 0.0 | 6.0 | 0.12 | 1.72 | 0.01 | 78 | 1004.8 |
| 20260904000052 | 48 | 210 | 0.0 | 5.0 | 0.17 | 1.72 | 0.00 | 79 | 1004.9 |
| 20260903235552 | 48 | 243 | 0.0 | 5.0 | 0.17 | 1.72 | 0.00 | 78 | 1005.0 |
| 20260903235052 | 48 | 222 | 0.0 | 5.0 | 0.20 | 1.72 | 0.00 | 79 | 1004.9 |
| 20260903234552 | 48 | 112 | 0.0 | 3.0 | 0.20 | 1.72 | 0.00 | 79 | 1005.3 |
| 20260903234053 | 48 | 277 | 0.0 | 4.0 | 0.21 | 1.72 | 0.00 | 78 | 1005.0 |
| 20260903233552 | 48 | 226 | 0.0 | 4.0 | 0.21 | 1.72 | 1.72 | 78 | 1005.7 |
| 20260903233052 | 48 | 231 | 0.0 | 4.0 | 0.20 | 1.71 | 1.71 | 73 | 1006.0 |